owner,sensor,date,latitude,longitude,air_pressure(mBar),qcFlag 
LUMCON,ioos:station:LUMCON:102:1,2010-11-01T15:00:00Z,29.1870,-90.6093,1019.9,11111222 
LUMCON,ioos:station:LUMCON:102:1,2010-11-01T16:00:00Z,29.1870,-90.6093,1019.9,11111222 
LUMCON,ioos:station:LUMCON:102:1,2010-11-01T17:00:00Z,29.1870,-90.6093,1019.6,11111222 
LUMCON,ioos:station:LUMCON:102:1,2010-11-01T18:00:00Z,29.1870,-90.6093,1018.8,11111222 
LUMCON,ioos:station:LUMCON:102:1,2010-11-01T19:00:00Z,29.1870,-90.6093,1018.1,11111222 
LUMCON,ioos:station:LUMCON:102:1,2010-11-01T21:00:00Z,29.1870,-90.6093,1017.5,11111222 
LUMCON,ioos:station:LUMCON:102:1,2010-11-01T22:00:00Z,29.1870,-90.6093,1017.5,11111222 
LUMCON,ioos:station:LUMCON:102:1,2010-11-01T23:00:00Z,29.1870,-90.6093,1017.5,11111222 
LUMCON,ioos:station:LUMCON:102:1,2010-11-02T00:00:00Z,29.1870,-90.6093,1017.9,11111222 
LUMCON,ioos:station:LUMCON:102:1,2010-11-02T01:00:00Z,29.1870,-90.6093,1018.6,11111222 
LUMCON,ioos:station:LUMCON:102:1,2010-11-02T02:00:00Z,29.1870,-90.6093,1019.1,11111222 
LUMCON,ioos:station:LUMCON:102:1,2010-11-02T03:00:00Z,29.1870,-90.6093,1019.6,11111222 
LUMCON,ioos:station:LUMCON:102:1,2010-11-02T04:00:00Z,29.1870,-90.6093,1019.1,11111222 
LUMCON,ioos:station:LUMCON:102:1,2010-11-02T05:00:00Z,29.1870,-90.6093,1017.3,11111222 
LUMCON,ioos:station:LUMCON:102:1,2010-11-02T06:00:00Z,29.1870,-90.6093,1016.6,11111222 
LUMCON,ioos:station:LUMCON:102:1,2010-11-02T07:00:00Z,29.1870,-90.6093,1015.9,11111222 
LUMCON,ioos:station:LUMCON:102:1,2010-11-02T08:00:00Z,29.1870,-90.6093,1015.2,11111222 
LUMCON,ioos:station:LUMCON:102:1,2010-11-02T09:00:00Z,29.1870,-90.6093,1015.2,11111222 
LUMCON,ioos:station:LUMCON:102:1,2010-11-02T10:00:00Z,29.1870,-90.6093,1015.5,11111222 
LUMCON,ioos:station:LUMCON:102:1,2010-11-02T11:00:00Z,29.1870,-90.6093,1015.0,11111222 
LUMCON,ioos:station:LUMCON:102:1,2010-11-02T12:00:00Z,29.1870,-90.6093,1014.7,11111222 
LUMCON,ioos:station:LUMCON:102:1,2010-11-02T13:00:00Z,29.1870,-90.6093,1014.7,11111222 
LUMCON,ioos:station:LUMCON:102:1,2010-11-02T14:00:00Z,29.1870,-90.6093,1014.7,11111222 
LUMCON,ioos:station:LUMCON:102:1,2010-11-02T15:00:00Z,29.1870,-90.6093,1014.3,11111222 
LUMCON,ioos:station:LUMCON:102:1,2010-11-02T16:00:00Z,29.1870,-90.6093,1014.2,11111222 
LUMCON,ioos:station:LUMCON:102:1,2010-11-02T17:00:00Z,29.1870,-90.6093,1014.6,11111222 
LUMCON,ioos:station:LUMCON:102:1,2010-11-08T23:00:00Z,29.1870,-90.6093,1018.8,11111222 
LUMCON,ioos:station:LUMCON:102:1,2010-11-09T00:00:00Z,29.1870,-90.6093,1018.7,11111222 
LUMCON,ioos:station:LUMCON:102:1,2010-11-09T01:00:00Z,29.1870,-90.6093,1018.9,11111222 
LUMCON,ioos:station:LUMCON:102:1,2010-11-09T02:00:00Z,29.1870,-90.6093,1018.8,11111222 
LUMCON,ioos:station:LUMCON:102:1,2010-11-09T03:00:00Z,29.1870,-90.6093,1018.7,11111222 
LUMCON,ioos:station:LUMCON:102:1,2010-11-09T04:00:00Z,29.1870,-90.6093,1018.4,11111222 
LUMCON,ioos:station:LUMCON:102:1,2010-11-09T05:00:00Z,29.1870,-90.6093,1018.2,11111222 
LUMCON,ioos:station:LUMCON:102:1,2010-11-09T06:00:00Z,29.1870,-90.6093,1018.1,11111222 
LUMCON,ioos:station:LUMCON:102:1,2010-11-09T07:00:00Z,29.1870,-90.6093,1017.7,11111222 
LUMCON,ioos:station:LUMCON:102:1,2010-11-09T08:00:00Z,29.1870,-90.6093,1017.3,11111222 
LUMCON,ioos:station:LUMCON:102:1,2010-11-09T09:00:00Z,29.1870,-90.6093,1017.2,11111222 
LUMCON,ioos:station:LUMCON:102:1,2010-11-09T10:00:00Z,29.1870,-90.6093,1017.1,11111222 
LUMCON,ioos:station:LUMCON:102:1,2010-11-09T11:00:00Z,29.1870,-90.6093,1017.1,11111222 
LUMCON,ioos:station:LUMCON:102:1,2010-11-09T12:00:00Z,29.1870,-90.6093,1017.3,11111222 
LUMCON,ioos:station:LUMCON:102:1,2010-11-09T13:00:00Z,29.1870,-90.6093,1017.6,11111222 
LUMCON,ioos:station:LUMCON:102:1,2010-11-09T14:00:00Z,29.1870,-90.6093,1018.2,11111222 
LUMCON,ioos:station:LUMCON:102:1,2010-11-09T15:00:00Z,29.1870,-90.6093,1018.9,11111222 
LUMCON,ioos:station:LUMCON:102:1,2010-11-09T16:00:00Z,29.1870,-90.6093,1018.9,11111222 
LUMCON,ioos:station:LUMCON:102:1,2010-11-09T17:00:00Z,29.1870,-90.6093,1018.2,11111222 
LUMCON,ioos:station:LUMCON:102:1,2010-11-09T18:00:00Z,29.1870,-90.6093,1017.7,11111222 
LUMCON,ioos:station:LUMCON:102:1,2010-11-09T19:00:00Z,29.1870,-90.6093,1016.8,11111222 
LUMCON,ioos:station:LUMCON:102:1,2010-11-09T20:00:00Z,29.1870,-90.6093,1016.3,11111222 
LUMCON,ioos:station:LUMCON:102:1,2010-11-09T21:00:00Z,29.1870,-90.6093,1015.9,11111222 
LUMCON,ioos:station:LUMCON:102:1,2010-11-09T22:00:00Z,29.1870,-90.6093,1015.6,11111222 
LUMCON,ioos:station:LUMCON:102:1,2010-11-09T23:00:00Z,29.1870,-90.6093,1015.6,11111222 
LUMCON,ioos:station:LUMCON:102:1,2010-11-10T00:00:00Z,29.1870,-90.6093,1015.6,11111222 
LUMCON,ioos:station:LUMCON:102:1,2010-11-10T01:00:00Z,29.1870,-90.6093,1015.9,11111222 
LUMCON,ioos:station:LUMCON:102:1,2010-11-10T02:00:00Z,29.1870,-90.6093,1016.3,11111222 
LUMCON,ioos:station:LUMCON:102:1,2010-11-10T03:00:00Z,29.1870,-90.6093,1016.3,11111222 
LUMCON,ioos:station:LUMCON:102:1,2010-11-10T04:00:00Z,29.1870,-90.6093,1016.4,11111222 
LUMCON,ioos:station:LUMCON:102:1,2010-11-10T05:00:00Z,29.1870,-90.6093,1016.4,11111222 
LUMCON,ioos:station:LUMCON:102:1,2010-11-10T06:00:00Z,29.1870,-90.6093,1016.0,11111222 
LUMCON,ioos:station:LUMCON:102:1,2010-11-10T07:00:00Z,29.1870,-90.6093,1015.8,11111222 
LUMCON,ioos:station:LUMCON:102:1,2010-11-10T08:00:00Z,29.1870,-90.6093,1015.9,11111222 
LUMCON,ioos:station:LUMCON:102:1,2010-11-10T09:00:00Z,29.1870,-90.6093,1015.9,11111222 
LUMCON,ioos:station:LUMCON:102:1,2010-11-10T10:00:00Z,29.1870,-90.6093,1015.9,11111222 
LUMCON,ioos:station:LUMCON:102:1,2010-11-10T11:00:00Z,29.1870,-90.6093,1016.4,11111222 
LUMCON,ioos:station:LUMCON:102:1,2010-11-10T12:00:00Z,29.1870,-90.6093,1016.8,11111222 
LUMCON,ioos:station:LUMCON:102:1,2010-11-10T13:00:00Z,29.1870,-90.6093,1017.4,11111222 
LUMCON,ioos:station:LUMCON:102:1,2010-11-10T14:00:00Z,29.1870,-90.6093,1018.2,11111222 
LUMCON,ioos:station:LUMCON:102:1,2010-11-10T15:00:00Z,29.1870,-90.6093,1018.5,11111222 
LUMCON,ioos:station:LUMCON:102:1,2010-11-10T16:00:00Z,29.1870,-90.6093,1018.7,11111222 
LUMCON,ioos:station:LUMCON:102:1,2010-11-10T17:00:00Z,29.1870,-90.6093,1018.4,11111222 
LUMCON,ioos:station:LUMCON:102:1,2010-11-10T18:00:00Z,29.1870,-90.6093,1018.1,11111222 
LUMCON,ioos:station:LUMCON:102:1,2010-11-10T19:00:00Z,29.1870,-90.6093,1017.8,11111222 
LUMCON,ioos:station:LUMCON:102:1,2010-11-10T20:00:00Z,29.1870,-90.6093,1017.7,11111222 
LUMCON,ioos:station:LUMCON:102:1,2010-11-10T21:00:00Z,29.1870,-90.6093,1017.4,11111222 
LUMCON,ioos:station:LUMCON:102:1,2010-11-10T22:00:00Z,29.1870,-90.6093,1017.4,11111222 
LUMCON,ioos:station:LUMCON:102:1,2010-11-10T23:00:00Z,29.1870,-90.6093,1017.8,11111222 
LUMCON,ioos:station:LUMCON:102:1,2010-11-11T00:00:00Z,29.1870,-90.6093,1018.4,11111222 
LUMCON,ioos:station:LUMCON:102:1,2010-11-11T01:00:00Z,29.1870,-90.6093,1018.8,11111222 
LUMCON,ioos:station:LUMCON:102:1,2010-11-11T02:00:00Z,29.1870,-90.6093,1019.3,11111222 
LUMCON,ioos:station:LUMCON:102:1,2010-11-11T03:00:00Z,29.1870,-90.6093,1019.6,11111222 
LUMCON,ioos:station:LUMCON:102:1,2010-11-11T04:00:00Z,29.1870,-90.6093,1019.9,11111222 
LUMCON,ioos:station:LUMCON:102:1,2010-11-11T05:00:00Z,29.1870,-90.6093,1020.1,11111222 
LUMCON,ioos:station:LUMCON:102:1,2010-11-11T06:00:00Z,29.1870,-90.6093,1020.0,11111222 
LUMCON,ioos:station:LUMCON:102:1,2010-11-11T07:00:00Z,29.1870,-90.6093,1019.8,11111222 
LUMCON,ioos:station:LUMCON:102:1,2010-11-11T08:00:00Z,29.1870,-90.6093,1019.9,11111222 
LUMCON,ioos:station:LUMCON:102:1,2010-11-11T09:00:00Z,29.1870,-90.6093,1019.9,11111222 
LUMCON,ioos:station:LUMCON:102:1,2010-11-11T10:00:00Z,29.1870,-90.6093,1020.3,11111222 
LUMCON,ioos:station:LUMCON:102:1,2010-11-11T11:00:00Z,29.1870,-90.6093,1021.0,11111222 
LUMCON,ioos:station:LUMCON:102:1,2010-11-11T12:00:00Z,29.1870,-90.6093,1021.3,11111222 
LUMCON,ioos:station:LUMCON:102:1,2010-11-11T13:00:00Z,29.1870,-90.6093,1022.0,11111222 
LUMCON,ioos:station:LUMCON:102:1,2010-11-11T14:00:00Z,29.1870,-90.6093,1022.7,11111222 
LUMCON,ioos:station:LUMCON:102:1,2010-11-11T15:00:00Z,29.1870,-90.6093,1023.3,11111222 
LUMCON,ioos:station:LUMCON:102:1,2010-11-11T17:00:00Z,29.1870,-90.6093,1023.6,11111222 
LUMCON,ioos:station:LUMCON:102:1,2010-11-11T18:00:00Z,29.1870,-90.6093,1023.0,11111222 
LUMCON,ioos:station:LUMCON:102:1,2010-11-11T19:00:00Z,29.1870,-90.6093,1022.4,11111222 
LUMCON,ioos:station:LUMCON:102:1,2010-11-11T20:00:00Z,29.1870,-90.6093,1022.2,11111222 
LUMCON,ioos:station:LUMCON:102:1,2010-11-11T21:00:00Z,29.1870,-90.6093,1022.2,11111222 
LUMCON,ioos:station:LUMCON:102:1,2010-11-11T22:00:00Z,29.1870,-90.6093,1022.3,11111222 
LUMCON,ioos:station:LUMCON:102:1,2010-11-11T23:00:00Z,29.1870,-90.6093,1022.4,11111222 
LUMCON,ioos:station:LUMCON:102:1,2010-11-12T00:00:00Z,29.1870,-90.6093,1022.7,11111222 
LUMCON,ioos:station:LUMCON:102:1,2010-11-12T01:00:00Z,29.1870,-90.6093,1023.2,11111222 
LUMCON,ioos:station:LUMCON:102:1,2010-11-12T02:00:00Z,29.1870,-90.6093,1023.5,11111222 
LUMCON,ioos:station:LUMCON:102:1,2010-11-12T03:00:00Z,29.1870,-90.6093,1023.5,11111222 
LUMCON,ioos:station:LUMCON:102:1,2010-11-12T04:00:00Z,29.1870,-90.6093,1023.5,11111222 
LUMCON,ioos:station:LUMCON:102:1,2010-11-12T05:00:00Z,29.1870,-90.6093,1023.4,11111222 
LUMCON,ioos:station:LUMCON:102:1,2010-11-12T06:00:00Z,29.1870,-90.6093,1022.9,11111222 
LUMCON,ioos:station:LUMCON:102:1,2010-11-12T07:00:00Z,29.1870,-90.6093,1022.7,11111222 
LUMCON,ioos:station:LUMCON:102:1,2010-11-12T08:00:00Z,29.1870,-90.6093,1022.5,11111222 
LUMCON,ioos:station:LUMCON:102:1,2010-11-12T09:00:00Z,29.1870,-90.6093,1022.4,11111222 
LUMCON,ioos:station:LUMCON:102:1,2010-11-12T10:00:00Z,29.1870,-90.6093,1022.3,11111222 
LUMCON,ioos:station:LUMCON:102:1,2010-11-12T11:00:00Z,29.1870,-90.6093,1022.3,11111222 
LUMCON,ioos:station:LUMCON:102:1,2010-11-12T12:00:00Z,29.1870,-90.6093,1022.5,11111222 
LUMCON,ioos:station:LUMCON:102:1,2010-11-12T13:00:00Z,29.1870,-90.6093,1022.7,11111222 
LUMCON,ioos:station:LUMCON:102:1,2010-11-12T14:00:00Z,29.1870,-90.6093,1023.1,11111222 
LUMCON,ioos:station:LUMCON:102:1,2010-11-12T15:00:00Z,29.1870,-90.6093,1023.5,11111222 
LUMCON,ioos:station:LUMCON:102:1,2010-11-12T16:00:00Z,29.1870,-90.6093,1023.6,11111222 
LUMCON,ioos:station:LUMCON:102:1,2010-11-12T17:00:00Z,29.1870,-90.6093,1023.6,11111222 
LUMCON,ioos:station:LUMCON:102:1,2010-11-12T18:00:00Z,29.1870,-90.6093,1023.0,11111222 
LUMCON,ioos:station:LUMCON:102:1,2010-11-12T19:00:00Z,29.1870,-90.6093,1022.2,11111222 
LUMCON,ioos:station:LUMCON:102:1,2010-11-12T20:00:00Z,29.1870,-90.6093,1021.7,11111222 
LUMCON,ioos:station:LUMCON:102:1,2010-11-12T21:00:00Z,29.1870,-90.6093,1021.3,11111222 
LUMCON,ioos:station:LUMCON:102:1,2010-11-12T22:00:00Z,29.1870,-90.6093,1021.2,11111222 
LUMCON,ioos:station:LUMCON:102:1,2010-11-12T23:00:00Z,29.1870,-90.6093,1021.3,11111222 
LUMCON,ioos:station:LUMCON:102:1,2010-11-13T00:00:00Z,29.1870,-90.6093,1021.5,11111222 
LUMCON,ioos:station:LUMCON:102:1,2010-11-13T01:00:00Z,29.1870,-90.6093,1021.7,11111222 
LUMCON,ioos:station:LUMCON:102:1,2010-11-13T02:00:00Z,29.1870,-90.6093,1021.9,11111222 
LUMCON,ioos:station:LUMCON:102:1,2010-11-13T03:00:00Z,29.1870,-90.6093,1022.1,11111222 
LUMCON,ioos:station:LUMCON:102:1,2010-11-13T04:00:00Z,29.1870,-90.6093,1022.0,11111222 
LUMCON,ioos:station:LUMCON:102:1,2010-11-13T05:00:00Z,29.1870,-90.6093,1021.9,11111222 
LUMCON,ioos:station:LUMCON:102:1,2010-11-13T06:00:00Z,29.1870,-90.6093,1021.4,11111222 
LUMCON,ioos:station:LUMCON:102:1,2010-11-13T07:00:00Z,29.1870,-90.6093,1021.2,11111222 
LUMCON,ioos:station:LUMCON:102:1,2010-11-13T08:00:00Z,29.1870,-90.6093,1020.8,11111222 
LUMCON,ioos:station:LUMCON:102:1,2010-11-13T09:00:00Z,29.1870,-90.6093,1020.5,11111222 
LUMCON,ioos:station:LUMCON:102:1,2010-11-13T10:00:00Z,29.1870,-90.6093,1020.4,11111222 
LUMCON,ioos:station:LUMCON:102:1,2010-11-13T12:00:00Z,29.1870,-90.6093,1020.3,11111222 
LUMCON,ioos:station:LUMCON:102:1,2010-11-13T13:00:00Z,29.1870,-90.6093,1020.6,11111222 
LUMCON,ioos:station:LUMCON:102:1,2010-11-13T14:00:00Z,29.1870,-90.6093,1021.0,11111222 
LUMCON,ioos:station:LUMCON:102:1,2010-11-13T15:00:00Z,29.1870,-90.6093,1021.3,11111222 
LUMCON,ioos:station:LUMCON:102:1,2010-11-13T16:00:00Z,29.1870,-90.6093,1021.3,11111222 
LUMCON,ioos:station:LUMCON:102:1,2010-11-13T17:00:00Z,29.1870,-90.6093,1021.0,11111222 
LUMCON,ioos:station:LUMCON:102:1,2010-11-13T18:00:00Z,29.1870,-90.6093,1020.0,11111222 
LUMCON,ioos:station:LUMCON:102:1,2010-11-13T19:00:00Z,29.1870,-90.6093,1018.8,11111222 
LUMCON,ioos:station:LUMCON:102:1,2010-11-13T20:00:00Z,29.1870,-90.6093,1018.2,11111222 
LUMCON,ioos:station:LUMCON:102:1,2010-11-13T21:00:00Z,29.1870,-90.6093,1017.7,11111222 
LUMCON,ioos:station:LUMCON:102:1,2010-11-14T16:00:00Z,29.1870,-90.6093,1020.0,11111222 
LUMCON,ioos:station:LUMCON:102:1,2010-11-15T16:00:00Z,29.1870,-90.6093,1009.5,11111222 
LUMCON,ioos:station:LUMCON:102:1,2010-11-15T17:00:00Z,29.1870,-90.6093,1008.1,11111222 
LUMCON,ioos:station:LUMCON:102:1,2010-11-15T18:00:00Z,29.1870,-90.6093,1007.1,11111222 
LUMCON,ioos:station:LUMCON:102:1,2010-11-15T19:00:00Z,29.1870,-90.6093,1006.1,11111222 
LUMCON,ioos:station:LUMCON:102:1,2010-11-15T20:00:00Z,29.1870,-90.6093,1005.9,11111222 
LUMCON,ioos:station:LUMCON:102:1,2010-11-15T21:00:00Z,29.1870,-90.6093,1006.0,11111222 
LUMCON,ioos:station:LUMCON:102:1,2010-11-15T22:00:00Z,29.1870,-90.6093,1005.5,11111222 
LUMCON,ioos:station:LUMCON:102:1,2010-11-15T23:00:00Z,29.1870,-90.6093,1004.6,11111222 
LUMCON,ioos:station:LUMCON:102:1,2010-11-16T00:00:00Z,29.1870,-90.6093,1004.8,11111222 
LUMCON,ioos:station:LUMCON:102:1,2010-11-16T01:00:00Z,29.1870,-90.6093,1005.1,11111222 
LUMCON,ioos:station:LUMCON:102:1,2010-11-16T02:00:00Z,29.1870,-90.6093,1005.5,11111222 
LUMCON,ioos:station:LUMCON:102:1,2010-11-16T03:00:00Z,29.1870,-90.6093,1005.1,11111222 
LUMCON,ioos:station:LUMCON:102:1,2010-11-16T04:00:00Z,29.1870,-90.6093,1005.2,11111222 
LUMCON,ioos:station:LUMCON:102:1,2010-11-16T05:00:00Z,29.1870,-90.6093,1004.5,11111222 
LUMCON,ioos:station:LUMCON:102:1,2010-11-16T06:00:00Z,29.1870,-90.6093,1004.1,11111222 
LUMCON,ioos:station:LUMCON:102:1,2010-11-16T07:00:00Z,29.1870,-90.6093,1003.9,11111222 
LUMCON,ioos:station:LUMCON:102:1,2010-11-16T08:00:00Z,29.1870,-90.6093,1004.3,11111222 
LUMCON,ioos:station:LUMCON:102:1,2010-11-16T09:00:00Z,29.1870,-90.6093,1004.0,11111222 
LUMCON,ioos:station:LUMCON:102:1,2010-11-16T10:00:00Z,29.1870,-90.6093,1004.8,11111222 
LUMCON,ioos:station:LUMCON:102:1,2010-11-16T11:00:00Z,29.1870,-90.6093,1005.1,11111222 
LUMCON,ioos:station:LUMCON:102:1,2010-11-16T12:00:00Z,29.1870,-90.6093,1005.5,11111222 
LUMCON,ioos:station:LUMCON:102:1,2010-11-16T13:00:00Z,29.1870,-90.6093,1006.5,11111222 
LUMCON,ioos:station:LUMCON:102:1,2010-11-16T14:00:00Z,29.1870,-90.6093,1007.7,11111222 
LUMCON,ioos:station:LUMCON:102:1,2010-11-16T15:00:00Z,29.1870,-90.6093,1008.8,11111222 
LUMCON,ioos:station:LUMCON:102:1,2010-11-16T16:00:00Z,29.1870,-90.6093,1009.5,11111222 
LUMCON,ioos:station:LUMCON:102:1,2010-11-16T17:00:00Z,29.1870,-90.6093,1009.6,11111222 
LUMCON,ioos:station:LUMCON:102:1,2010-11-16T18:00:00Z,29.1870,-90.6093,1009.4,11111222 
LUMCON,ioos:station:LUMCON:102:1,2010-11-16T19:00:00Z,29.1870,-90.6093,1009.2,11111222 
LUMCON,ioos:station:LUMCON:102:1,2010-11-16T20:00:00Z,29.1870,-90.6093,1009.2,11111222 
LUMCON,ioos:station:LUMCON:102:1,2010-11-16T21:00:00Z,29.1870,-90.6093,1009.6,11111222 
LUMCON,ioos:station:LUMCON:102:1,2010-11-16T22:00:00Z,29.1870,-90.6093,1010.1,11111222 
LUMCON,ioos:station:LUMCON:102:1,2010-11-16T23:00:00Z,29.1870,-90.6093,1010.8,11111222 
LUMCON,ioos:station:LUMCON:102:1,2010-11-17T00:00:00Z,29.1870,-90.6093,1011.7,11111222 
LUMCON,ioos:station:LUMCON:102:1,2010-11-17T01:00:00Z,29.1870,-90.6093,1012.6,11111222 
LUMCON,ioos:station:LUMCON:102:1,2010-11-17T02:00:00Z,29.1870,-90.6093,1013.3,11111222 
LUMCON,ioos:station:LUMCON:102:1,2010-11-17T03:00:00Z,29.1870,-90.6093,1014.1,11111222 
LUMCON,ioos:station:LUMCON:102:1,2010-11-17T04:00:00Z,29.1870,-90.6093,1014.8,11111222 
LUMCON,ioos:station:LUMCON:102:1,2010-11-17T05:00:00Z,29.1870,-90.6093,1015.4,11111222 
LUMCON,ioos:station:LUMCON:102:1,2010-11-17T06:00:00Z,29.1870,-90.6093,1015.5,11111222 
LUMCON,ioos:station:LUMCON:102:1,2010-11-17T07:00:00Z,29.1870,-90.6093,1015.8,11111222 
LUMCON,ioos:station:LUMCON:102:1,2010-11-17T08:00:00Z,29.1870,-90.6093,1016.0,11111222 
LUMCON,ioos:station:LUMCON:102:1,2010-11-17T09:00:00Z,29.1870,-90.6093,1016.4,11111222 
LUMCON,ioos:station:LUMCON:102:1,2010-11-17T10:00:00Z,29.1870,-90.6093,1016.9,11111222 
LUMCON,ioos:station:LUMCON:102:1,2010-11-17T11:00:00Z,29.1870,-90.6093,1016.9,11111222 
LUMCON,ioos:station:LUMCON:102:1,2010-11-17T12:00:00Z,29.1870,-90.6093,1017.7,11111222 
LUMCON,ioos:station:LUMCON:102:1,2010-11-17T13:00:00Z,29.1870,-90.6093,1018.1,11111222 
LUMCON,ioos:station:LUMCON:102:1,2010-11-17T14:00:00Z,29.1870,-90.6093,1018.7,11111222 
LUMCON,ioos:station:LUMCON:102:1,2010-11-17T15:00:00Z,29.1870,-90.6093,1019.6,11111222 
LUMCON,ioos:station:LUMCON:102:1,2010-11-17T16:00:00Z,29.1870,-90.6093,1019.7,11111222 
LUMCON,ioos:station:LUMCON:102:1,2010-11-17T17:00:00Z,29.1870,-90.6093,1019.6,11111222 
LUMCON,ioos:station:LUMCON:102:1,2010-11-17T18:00:00Z,29.1870,-90.6093,1018.9,11111222 
LUMCON,ioos:station:LUMCON:102:1,2010-11-17T19:00:00Z,29.1870,-90.6093,1018.2,11111222 
LUMCON,ioos:station:LUMCON:102:1,2010-11-17T20:00:00Z,29.1870,-90.6093,1018.1,11111222 
LUMCON,ioos:station:LUMCON:102:1,2010-11-17T21:00:00Z,29.1870,-90.6093,1018.0,11111222 
LUMCON,ioos:station:LUMCON:102:1,2010-11-17T22:00:00Z,29.1870,-90.6093,1018.4,11111222 
LUMCON,ioos:station:LUMCON:102:1,2010-11-17T23:00:00Z,29.1870,-90.6093,1018.5,11111222 
LUMCON,ioos:station:LUMCON:102:1,2010-11-18T00:00:00Z,29.1870,-90.6093,1019.0,11111222 
LUMCON,ioos:station:LUMCON:102:1,2010-11-18T01:00:00Z,29.1870,-90.6093,1019.2,11111222 
LUMCON,ioos:station:LUMCON:102:1,2010-11-18T02:00:00Z,29.1870,-90.6093,1020.0,11111222 
LUMCON,ioos:station:LUMCON:102:1,2010-11-18T03:00:00Z,29.1870,-90.6093,1020.3,11111222 
LUMCON,ioos:station:LUMCON:102:1,2010-11-18T04:00:00Z,29.1870,-90.6093,1020.6,11111222 
LUMCON,ioos:station:LUMCON:102:1,2010-11-18T05:00:00Z,29.1870,-90.6093,1020.9,11111222 
LUMCON,ioos:station:LUMCON:102:1,2010-11-18T06:00:00Z,29.1870,-90.6093,1020.5,11111222 
LUMCON,ioos:station:LUMCON:102:1,2010-11-18T07:00:00Z,29.1870,-90.6093,1019.6,11111222 
LUMCON,ioos:station:LUMCON:102:1,2010-11-18T08:00:00Z,29.1870,-90.6093,1019.5,11111222 
LUMCON,ioos:station:LUMCON:102:1,2010-11-18T09:00:00Z,29.1870,-90.6093,1019.7,11111222 
LUMCON,ioos:station:LUMCON:102:1,2010-11-18T10:00:00Z,29.1870,-90.6093,1019.5,11111222 
LUMCON,ioos:station:LUMCON:102:1,2010-11-18T11:00:00Z,29.1870,-90.6093,1019.6,11111222 
LUMCON,ioos:station:LUMCON:102:1,2010-11-18T12:00:00Z,29.1870,-90.6093,1019.7,11111222 
LUMCON,ioos:station:LUMCON:102:1,2010-11-18T13:00:00Z,29.1870,-90.6093,1020.9,11111222 
LUMCON,ioos:station:LUMCON:102:1,2010-11-18T14:00:00Z,29.1870,-90.6093,1021.9,11111222 
LUMCON,ioos:station:LUMCON:102:1,2010-11-18T15:00:00Z,29.1870,-90.6093,1022.7,11111222 
LUMCON,ioos:station:LUMCON:102:1,2010-11-18T16:00:00Z,29.1870,-90.6093,1023.2,11111222 
LUMCON,ioos:station:LUMCON:102:1,2010-11-18T18:00:00Z,29.1870,-90.6093,1022.4,11111222 
LUMCON,ioos:station:LUMCON:102:1,2010-11-18T19:00:00Z,29.1870,-90.6093,1021.5,11111222 
LUMCON,ioos:station:LUMCON:102:1,2010-11-18T20:00:00Z,29.1870,-90.6093,1020.9,11111222 
LUMCON,ioos:station:LUMCON:102:1,2010-11-18T21:00:00Z,29.1870,-90.6093,1020.8,11111222 
LUMCON,ioos:station:LUMCON:102:1,2010-11-18T22:00:00Z,29.1870,-90.6093,1020.7,11111222 
LUMCON,ioos:station:LUMCON:102:1,2010-11-18T23:00:00Z,29.1870,-90.6093,1021.3,11111222 
LUMCON,ioos:station:LUMCON:102:1,2010-11-19T00:00:00Z,29.1870,-90.6093,1021.8,11111222 
LUMCON,ioos:station:LUMCON:102:1,2010-11-19T01:00:00Z,29.1870,-90.6093,1022.6,11111222 
LUMCON,ioos:station:LUMCON:102:1,2010-11-19T02:00:00Z,29.1870,-90.6093,1023.2,11111222 
LUMCON,ioos:station:LUMCON:102:1,2010-11-19T03:00:00Z,29.1870,-90.6093,1023.6,11111222 
LUMCON,ioos:station:LUMCON:102:1,2010-11-19T04:00:00Z,29.1870,-90.6093,1023.7,11111222 
LUMCON,ioos:station:LUMCON:102:1,2010-11-19T05:00:00Z,29.1870,-90.6093,1023.8,11111222 
LUMCON,ioos:station:LUMCON:102:1,2010-11-19T06:00:00Z,29.1870,-90.6093,1023.3,11111222 
LUMCON,ioos:station:LUMCON:102:1,2010-11-19T07:00:00Z,29.1870,-90.6093,1022.8,11111222 
LUMCON,ioos:station:LUMCON:102:1,2010-11-19T08:00:00Z,29.1870,-90.6093,1022.4,11111222 
LUMCON,ioos:station:LUMCON:102:1,2010-11-19T09:00:00Z,29.1870,-90.6093,1022.2,11111222 
LUMCON,ioos:station:LUMCON:102:1,2010-11-19T10:00:00Z,29.1870,-90.6093,1022.0,11111222 
LUMCON,ioos:station:LUMCON:102:1,2010-11-19T11:00:00Z,29.1870,-90.6093,1022.5,11111222 
LUMCON,ioos:station:LUMCON:102:1,2010-11-19T12:00:00Z,29.1870,-90.6093,1023.0,11111222 
LUMCON,ioos:station:LUMCON:102:1,2010-11-19T13:00:00Z,29.1870,-90.6093,1023.5,11111222 
LUMCON,ioos:station:LUMCON:102:1,2010-11-19T14:00:00Z,29.1870,-90.6093,1023.8,11111222 
LUMCON,ioos:station:LUMCON:102:1,2010-11-19T15:00:00Z,29.1870,-90.6093,1024.0,11111222 
LUMCON,ioos:station:LUMCON:102:1,2010-11-19T16:00:00Z,29.1870,-90.6093,1024.1,11111222 
LUMCON,ioos:station:LUMCON:102:1,2010-11-19T17:00:00Z,29.1870,-90.6093,1024.0,11111222 
LUMCON,ioos:station:LUMCON:102:1,2010-11-19T18:00:00Z,29.1870,-90.6093,1023.3,11111222 
LUMCON,ioos:station:LUMCON:102:1,2010-11-19T19:00:00Z,29.1870,-90.6093,1022.3,11111222 
LUMCON,ioos:station:LUMCON:102:1,2010-11-19T20:00:00Z,29.1870,-90.6093,1021.9,11111222 
LUMCON,ioos:station:LUMCON:102:1,2010-11-19T21:00:00Z,29.1870,-90.6093,1021.7,11111222 
LUMCON,ioos:station:LUMCON:102:1,2010-11-19T22:00:00Z,29.1870,-90.6093,1021.4,11111222 
LUMCON,ioos:station:LUMCON:102:1,2010-11-19T23:00:00Z,29.1870,-90.6093,1021.5,11111222 
LUMCON,ioos:station:LUMCON:102:1,2010-11-20T00:00:00Z,29.1870,-90.6093,1021.8,11111222 
LUMCON,ioos:station:LUMCON:102:1,2010-11-20T01:00:00Z,29.1870,-90.6093,1022.3,11111222 
LUMCON,ioos:station:LUMCON:102:1,2010-11-20T02:00:00Z,29.1870,-90.6093,1022.7,11111222 
LUMCON,ioos:station:LUMCON:102:1,2010-11-20T03:00:00Z,29.1870,-90.6093,1022.9,11111222 
LUMCON,ioos:station:LUMCON:102:1,2010-11-20T04:00:00Z,29.1870,-90.6093,1023.0,11111222 
LUMCON,ioos:station:LUMCON:102:1,2010-11-20T05:00:00Z,29.1870,-90.6093,1022.7,11111222 
LUMCON,ioos:station:LUMCON:102:1,2010-11-20T06:00:00Z,29.1870,-90.6093,1022.5,11111222 
LUMCON,ioos:station:LUMCON:102:1,2010-11-20T07:00:00Z,29.1870,-90.6093,1022.0,11111222 
LUMCON,ioos:station:LUMCON:102:1,2010-11-20T08:00:00Z,29.1870,-90.6093,1021.4,11111222 
LUMCON,ioos:station:LUMCON:102:1,2010-11-20T10:00:00Z,29.1870,-90.6093,1021.1,11111222 
LUMCON,ioos:station:LUMCON:102:1,2010-11-20T11:00:00Z,29.1870,-90.6093,1021.7,11111222 
LUMCON,ioos:station:LUMCON:102:1,2010-11-20T12:00:00Z,29.1870,-90.6093,1022.2,11111222 
LUMCON,ioos:station:LUMCON:102:1,2010-11-20T13:00:00Z,29.1870,-90.6093,1022.8,11111222 
LUMCON,ioos:station:LUMCON:102:1,2010-11-22T17:00:00Z,29.1870,-90.6093,1021.1,11111222 
LUMCON,ioos:station:LUMCON:102:1,2010-11-22T18:00:00Z,29.1870,-90.6093,1020.2,11111222 
LUMCON,ioos:station:LUMCON:102:1,2010-11-22T19:00:00Z,29.1870,-90.6093,1019.2,11111222 
LUMCON,ioos:station:LUMCON:102:1,2010-11-22T20:00:00Z,29.1870,-90.6093,1018.7,11111222 
LUMCON,ioos:station:LUMCON:102:1,2010-11-22T22:00:00Z,29.1870,-90.6093,1018.3,11111222 
LUMCON,ioos:station:LUMCON:102:1,2010-11-22T23:00:00Z,29.1870,-90.6093,1018.3,11111222 
LUMCON,ioos:station:LUMCON:102:1,2010-11-23T00:00:00Z,29.1870,-90.6093,1018.4,11111222 
LUMCON,ioos:station:LUMCON:102:1,2010-11-23T01:00:00Z,29.1870,-90.6093,1018.8,11111222 
LUMCON,ioos:station:LUMCON:102:1,2010-11-23T02:00:00Z,29.1870,-90.6093,1019.0,11111222 
LUMCON,ioos:station:LUMCON:102:1,2010-11-23T03:00:00Z,29.1870,-90.6093,1019.3,11111222 
LUMCON,ioos:station:LUMCON:102:1,2010-11-23T04:00:00Z,29.1870,-90.6093,1019.5,11111222 
LUMCON,ioos:station:LUMCON:102:1,2010-11-23T05:00:00Z,29.1870,-90.6093,1019.5,11111222 